Weather History for New Orleans Lakefront, LA

Change the Weather History Date:

Saturday, April 20, 2013

  Actual Average Record
Temperature  
Mean Temperature 60 °F 70 °F  
Max Temperature 67 °F 79 °F 90 °F (1987)
Min Temperature 52 °F 61 °F 46 °F (1953)
Degree Days  
Heating Degree Days 5 1  
Month to date heating degree days 30 30  
Since 1 July heating degree days 1128 1275  
Cooling Degree Days 0 6  
Month to date cooling degree days 90 88  
Year to date cooling degree days 158 188  
Growing Degree Days 10 (Base 50)    
Moisture  
Dew Point 40 °F    
Average Humidity 50    
Maximum Humidity 67    
Minimum Humidity 32    
Precipitation  
Precipitation 0.00 in 0.16 in 3.88 in (1977)
Month to date precipitation 6.76 3.04  
Year to date precipitation 21.64 18.04  
Snow  
Snow 0.00 in - - ()
Month to date snowfall 0.0  
Since 1 July snowfall 0.0  
Snow Depth 0.00 in    
Sea Level Pressure  
Sea Level Pressure 30.19 in    
Wind  
Wind Speed 9 mph (ENE)    
Max Wind Speed 20 mph    
Max Gust Speed 24 mph    
Visibility 10 miles    
Events      
T = Trace of Precipitation, MM = Missing Value Source: NWS Daily Summary

Daily Weather History Graph

Daily Weather History Graph

Search for Another Location

Airport:

Trip Planner

Search our weather history database for the weather conditions in past years. The results will help you decide how hot, cold, wet, or windy it might be!

Date:

Astronomy

Apr. 20, 2013 Rise Set
Actual Time 6:27 AM CDT 7:30 PM CDT
Civil Twilight 6:02 AM CDT 7:55 PM CDT
Nautical Twilight 5:33 AM CDT 8:24 PM CDT
Astronomical Twilight 5:03 AM CDT 8:55 PM CDT
Moon 2:36 PM CDT (4/20) 2:53 AM CDT (4/20)
Length of Visible Light 13h 52m
Length of Day
13h 03m
Waxing Gibbous, 71% of the Moon is Illuminated
Apr 20
Waxing Gibbous
Apr 25
Full
May 2
Last Quarter
May 9
New
May 17
First Quarter

Hourly Weather History & Observations

Time (CDT) Temp. Dew Point Humidity Pressure Visibility Wind Dir Wind Speed Gust Speed Precip Events Conditions
12:53 AM 57.0 °F 39.9 °F 53% 30.19 in 10.0 mi North 19.6 mph - N/A   Clear
1:53 AM 55.9 °F 39.0 °F 53% 30.19 in 10.0 mi North 17.3 mph - N/A   Clear
2:53 AM 55.9 °F 42.1 °F 60% 30.19 in 10.0 mi NNE 19.6 mph - N/A   Clear
3:53 AM 55.9 °F 39.9 °F 55% 30.19 in 10.0 mi NE 17.3 mph 24.2 mph N/A   Clear
4:53 AM 55.0 °F 39.0 °F 55% 30.19 in 10.0 mi NE 15.0 mph - N/A   Clear
5:53 AM 55.0 °F 39.9 °F 57% 30.20 in 10.0 mi NE 15.0 mph - N/A   Clear
6:53 AM 54.0 °F 39.9 °F 59% 30.22 in 10.0 mi ENE 15.0 mph - N/A   Clear
7:53 AM 55.0 °F 39.0 °F 55% 30.24 in 10.0 mi East 16.1 mph - N/A   Clear
8:53 AM 55.9 °F 39.0 °F 53% 30.25 in 10.0 mi ENE 15.0 mph - N/A   Clear
9:53 AM 57.9 °F 37.9 °F 47% 30.26 in 10.0 mi ENE 17.3 mph - N/A   Clear
10:53 AM 61.0 °F 39.0 °F 44% 30.26 in 10.0 mi ENE 15.0 mph - N/A   Clear
11:53 AM 62.1 °F 36.0 °F 38% 30.24 in 10.0 mi East 15.0 mph - N/A   Clear
12:53 PM 64.0 °F 37.0 °F 37% 30.22 in 10.0 mi ENE 10.4 mph - N/A   Clear
1:53 PM 64.0 °F 36.0 °F 35% 30.19 in 10.0 mi NE 5.8 mph - N/A   Clear
2:53 PM 66.0 °F 37.9 °F 36% 30.17 in 10.0 mi ENE 5.8 mph - N/A   Clear
3:53 PM 66.9 °F 39.0 °F 36% 30.14 in 10.0 mi ENE 5.8 mph - N/A   Clear
4:53 PM 66.0 °F 39.9 °F 38% 30.12 in 10.0 mi ESE 6.9 mph - N/A   Clear
5:53 PM 64.9 °F 39.0 °F 39% 30.13 in 10.0 mi Calm Calm - N/A   Clear
6:53 PM 64.9 °F 39.9 °F 40% 30.12 in 10.0 mi SE 3.5 mph - N/A   Clear
7:53 PM 62.1 °F 43.0 °F 50% 30.14 in 10.0 mi ESE 5.8 mph - N/A   Clear
8:53 PM 61.0 °F 43.0 °F 52% 30.16 in 10.0 mi SE 4.6 mph - N/A   Clear
9:53 PM 59.0 °F 46.0 °F 62% 30.19 in 10.0 mi SSE 4.6 mph - N/A   Clear
10:53 PM 60.1 °F 45.0 °F 57% 30.19 in 10.0 mi Calm Calm - N/A   Clear
11:53 PM 60.1 °F 44.1 °F 55% 30.18 in 10.0 mi Calm Calm - N/A   Clear